Weather History for Sauk Centre, MN

Change the Weather History Date:

Thursday, September 5, 2013

  Actual Average (KGHW) Record (KGHW)
Temperature  
Mean Temperature 72 °F -  
Max Temperature 84 °F 77 °F 94 °F (1960)
Min Temperature 59 °F 50 °F 36 °F (1962)
Cooling Degree Days 6    
Growing Degree Days 22 (Base 50)    
Moisture  
Dew Point 59 °F    
Average Humidity 68    
Maximum Humidity 88    
Minimum Humidity 44    
Precipitation  
Precipitation 0.00 in - - ()
Sea Level Pressure  
Sea Level Pressure 30.17 in    
Wind  
Wind Speed 6 mph (ESE)    
Max Wind Speed 13 mph    
Max Gust Speed 18 mph    
Visibility 10 miles    
Events      
Averages and records for this station are not official NWS values.
T = Trace of Precipitation, MM = Missing Value Source: NWS Daily Summary

Daily Weather History Graph

Daily Weather History Graph

Search for Another Location

Airport:

Trip Planner

Search our weather history database for the weather conditions in past years. The results will help you decide how hot, cold, wet, or windy it might be!

Date:

Astronomy

Sep. 05, 2013 Rise Set
Actual Time 6:46 AM CDT 7:49 PM CDT
Civil Twilight 6:15 AM CDT 8:19 PM CDT
Nautical Twilight 5:39 AM CDT 8:56 PM CDT
Astronomical Twilight 5:00 AM CDT 9:34 PM CDT
Moon 7:01 AM CDT (9/5) 7:36 PM CDT (9/5)
Length of Visible Light 14h 04m
Length of Day
13h 03m
New Moon, 0% of the Moon is Illuminated
Sep 5
New Moon
Sep 12
First Quarter
Sep 19
Full
Sep 26
Last Quarter
Oct 4
New

Hourly Weather History & Observations

Time (CDT) Temp. Heat Index Dew Point Humidity Pressure Visibility Wind Dir Wind Speed Gust Speed Precip Events Conditions
12:05 AM 62.6 °F - 55.4 °F 77% 30.18 in 10.0 mi ENE 3.5 mph - N/A   Clear
12:25 AM 62.6 °F - 55.4 °F 77% 30.19 in 10.0 mi Calm Calm - N/A   Clear
12:45 AM 60.8 °F - 55.4 °F 82% 30.19 in 10.0 mi ENE 3.5 mph - N/A   Clear
1:05 AM 60.8 °F - 55.4 °F 82% 30.19 in 10.0 mi Calm Calm - N/A   Clear
1:25 AM 60.8 °F - 57.2 °F 88% 30.19 in 10.0 mi Calm Calm - N/A   Clear
1:45 AM 62.6 °F - 57.2 °F 82% 30.19 in 10.0 mi ENE 5.8 mph - N/A   Clear
2:05 AM 62.6 °F - 57.2 °F 82% 30.19 in 10.0 mi East 3.5 mph - N/A   Clear
2:25 AM 62.6 °F - 57.2 °F 82% 30.19 in 10.0 mi ENE 6.9 mph - N/A   Clear
2:45 AM 62.6 °F - 57.2 °F 82% 30.19 in 10.0 mi East 5.8 mph - N/A   Clear
3:05 AM 60.8 °F - 55.4 °F 82% 30.19 in 10.0 mi East 3.5 mph - N/A   Clear
3:25 AM 60.8 °F - 55.4 °F 82% 30.19 in 10.0 mi East 3.5 mph - N/A   Clear
3:45 AM 60.8 °F - 55.4 °F 82% 30.19 in 10.0 mi East 4.6 mph - N/A   Clear
4:05 AM 60.8 °F - 55.4 °F 82% 30.19 in 10.0 mi East 4.6 mph - N/A   Clear
4:25 AM 60.8 °F - 55.4 °F 82% 30.19 in 10.0 mi East 3.5 mph - N/A   Clear
4:45 AM 60.8 °F - 55.4 °F 82% 30.19 in 10.0 mi East 4.6 mph - N/A   Clear
5:05 AM 59.0 °F - 55.4 °F 88% 30.19 in 10.0 mi ENE 4.6 mph - N/A   Clear
5:25 AM 60.8 °F - 55.4 °F 82% 30.20 in 10.0 mi East 3.5 mph - N/A   Clear
5:45 AM 59.0 °F - 55.4 °F 88% 30.21 in 10.0 mi East 4.6 mph - N/A   Clear
6:05 AM 59.0 °F - 55.4 °F 88% 30.21 in 10.0 mi East 5.8 mph - N/A   Clear
6:25 AM 59.0 °F - 55.4 °F 88% 30.21 in 10.0 mi East 5.8 mph - N/A   Clear
6:45 AM 60.8 °F - 55.4 °F 82% 30.21 in 10.0 mi East 5.8 mph - N/A   Mostly Cloudy
7:05 AM 60.8 °F - 55.4 °F 82% 30.22 in 10.0 mi East 5.8 mph - N/A   Mostly Cloudy
7:25 AM 60.8 °F - 55.4 °F 82% 30.22 in 10.0 mi East 5.8 mph - N/A   Mostly Cloudy
7:45 AM 60.8 °F - 55.4 °F 82% 30.22 in 10.0 mi East 8.1 mph - N/A   Mostly Cloudy
8:05 AM 60.8 °F - 55.4 °F 82% 30.22 in 10.0 mi East 8.1 mph - N/A   Mostly Cloudy
8:25 AM 62.6 °F - 53.6 °F 72% 30.22 in 10.0 mi East 8.1 mph - N/A   Overcast
8:45 AM 62.6 °F - 55.4 °F 77% 30.22 in 10.0 mi East 6.9 mph - N/A   Overcast
9:05 AM 62.6 °F - 53.6 °F 72% 30.22 in 10.0 mi East 6.9 mph - N/A   Overcast
9:25 AM 64.4 °F - 53.6 °F 68% 30.22 in 10.0 mi East 5.8 mph - N/A   Overcast
9:45 AM 64.4 °F - 53.6 °F 68% 30.23 in 10.0 mi SE 5.8 mph - N/A   Overcast
10:05 AM 66.2 °F - 53.6 °F 64% 30.23 in 10.0 mi ESE 8.1 mph - N/A   Overcast
10:25 AM 66.2 °F - 53.6 °F 64% 30.22 in 10.0 mi ESE 9.2 mph - N/A   Overcast
10:45 AM 68.0 °F - 53.6 °F 60% 30.22 in 10.0 mi ESE 8.1 mph - N/A   Overcast
11:05 AM 71.6 °F - 53.6 °F 53% 30.23 in 10.0 mi ESE 8.1 mph - N/A   Scattered Clouds
11:25 AM 73.4 °F - 53.6 °F 50% 30.23 in 10.0 mi ESE 6.9 mph - N/A   Scattered Clouds
11:45 AM 75.2 °F - 55.4 °F 50% 30.22 in 10.0 mi ESE 6.9 mph - N/A   Clear
12:05 PM 75.2 °F - 55.4 °F 50% 30.21 in 10.0 mi SE 8.1 mph - N/A   Clear
12:25 PM 77.0 °F - 55.4 °F 47% 30.21 in 10.0 mi SE 10.4 mph - N/A   Clear
12:45 PM 77.0 °F - 53.6 °F 44% 30.20 in 10.0 mi ESE 9.2 mph - N/A   Clear
1:05 PM 78.8 °F - 55.4 °F 44% 30.19 in 10.0 mi SE 11.5 mph - N/A   Clear
1:25 PM 78.8 °F - 55.4 °F 44% 30.19 in 10.0 mi SE 10.4 mph - N/A   Clear
1:45 PM 80.6 °F 80.8 °F 57.2 °F 45% 30.18 in 10.0 mi SE 10.4 mph 17.3 mph N/A   Clear
2:05 PM 80.6 °F 80.8 °F 57.2 °F 45% 30.17 in 10.0 mi ESE 11.5 mph 16.1 mph N/A   Clear
2:25 PM 80.6 °F 81.1 °F 59.0 °F 48% 30.17 in 10.0 mi SE 10.4 mph 16.1 mph N/A   Clear
2:45 PM 82.4 °F 82.5 °F 59.0 °F 45% 30.16 in 10.0 mi ESE 11.5 mph - N/A   Clear
3:05 PM 82.4 °F 82.5 °F 59.0 °F 45% 30.16 in 10.0 mi SE 9.2 mph - N/A   Clear
3:25 PM 82.4 °F 82.9 °F 60.8 °F 48% 30.15 in 10.0 mi East 11.5 mph - N/A   Clear
3:45 PM 82.4 °F 82.9 °F 60.8 °F 48% 30.15 in 10.0 mi ESE 11.5 mph 18.4 mph N/A   Clear
4:05 PM 82.4 °F 83.4 °F 62.6 °F 51% 30.14 in 10.0 mi SE 10.4 mph - N/A   Clear
4:25 PM 84.2 °F 85.0 °F 62.6 °F 48% 30.13 in 10.0 mi SE 10.4 mph - N/A   Clear
4:45 PM 84.2 °F 85.0 °F 62.6 °F 48% 30.13 in 10.0 mi SE 12.7 mph 18.4 mph N/A   Clear
5:05 PM 84.2 °F 85.0 °F 62.6 °F 48% 30.12 in 10.0 mi ESE 12.7 mph 17.3 mph N/A   Clear
5:25 PM 82.4 °F 83.4 °F 62.6 °F 51% 30.12 in 10.0 mi ESE 11.5 mph - N/A   Clear
5:45 PM 82.4 °F 83.4 °F 62.6 °F 51% 30.12 in 10.0 mi SE 8.1 mph - N/A   Clear
6:05 PM 82.4 °F 83.9 °F 64.4 °F 54% 30.12 in 10.0 mi SSE 9.2 mph - N/A   Clear
6:25 PM 80.6 °F 82.3 °F 64.4 °F 58% 30.11 in 10.0 mi SE 11.5 mph - N/A   Clear
6:45 PM 80.6 °F 82.3 °F 64.4 °F 58% 30.11 in 10.0 mi SE 6.9 mph - N/A   Clear
7:05 PM 78.8 °F - 64.4 °F 61% 30.10 in 10.0 mi SE 6.9 mph - N/A   Clear
7:25 PM 78.8 °F - 64.4 °F 61% 30.10 in 10.0 mi SE 6.9 mph - N/A   Clear
7:45 PM 75.2 °F - 64.4 °F 69% 30.10 in 10.0 mi ESE 6.9 mph - N/A   Clear
8:05 PM 75.2 °F - 64.4 °F 69% 30.10 in 10.0 mi SE 6.9 mph - N/A   Clear
8:25 PM 73.4 °F - 64.4 °F 73% 30.10 in 10.0 mi ESE 6.9 mph - N/A   Clear
8:45 PM 73.4 °F - 64.4 °F 73% 30.10 in 10.0 mi ESE 6.9 mph - N/A   Clear
9:05 PM 71.6 °F - 64.4 °F 78% 30.10 in 10.0 mi ESE 8.1 mph - N/A   Clear
9:25 PM 71.6 °F - 64.4 °F 78% 30.10 in 10.0 mi ESE 8.1 mph - N/A   Clear
9:45 PM 71.6 °F - 64.4 °F 78% 30.10 in 10.0 mi ESE 8.1 mph - N/A   Clear
10:05 PM 71.6 °F - 64.4 °F 78% 30.09 in 10.0 mi SE 8.1 mph - N/A   Clear
10:25 PM 71.6 °F - 64.4 °F 78% 30.10 in 10.0 mi SE 8.1 mph - N/A   Clear
10:45 PM 71.6 °F - 66.2 °F 83% 30.10 in 10.0 mi SE 8.1 mph - N/A   Clear
11:05 PM 69.8 °F - 66.2 °F 88% 30.09 in 10.0 mi SE 9.2 mph - N/A   Clear
11:25 PM 69.8 °F - 66.2 °F 88% 30.08 in 10.0 mi SE 6.9 mph - N/A   Clear
11:45 PM 69.8 °F - 66.2 °F 88% 30.08 in 10.0 mi SE 8.1 mph - N/A   Clear